Flag for Germany Weather past 2 weeks in Bocholt, North Rhine-Westphalia, Germany

Now
55 °F

Clear.


Feels Like: 55 °F
Forecast: 65 / 87 °F
Wind: 1 mph from North

Location: Niederrhein

Current Time: Aug 29, 2015 at 3:03:38 AM

Latest Report: Aug 28, 2015 at 11:50 PM


Visibility: 10 mi

Pressure: 30.15 "Hg

Humidity: 100%

Dew point: 55 °F

Location of BocholtLocation

Historic Weather in Bocholt — Graph

°F

Bocholt temperature yesterday

Maximum temperature yesterday: 70 °F (at 4:20 PM)
Minimum temperature yesterday: 54 °F (at 4:50 AM)
Average temperature yesterday: 62 °F

Past Weeks' High & Low Weather Summary

 TemperatureHumidityPressure
High82 °F (Aug 14, 3:50 PM)100% (Aug 14, 4:50 AM)30.24 "Hg (Aug 14, 4:50 AM)
Low52 °F (Aug 20, 5:50 AM)30% (Aug 23, 2:20 PM)29.50 "Hg (Aug 24, 3:20 PM)
Average66 °F74%29.93 "Hg
* Reported Aug 13 11:20 PM — Aug 28 11:50 PM, Bocholt, Weather by CustomWeather, © 2015

Note: Actual official high and low records may vary slightly from our data, if they occured in-between our weather recording intervals... More about our weather records

Advertising

Bocholt weather history for previous 24 hours

 ConditionsComfort  
Time TempWeatherWind HumidityBarometerVisibility
11:50 PM
Fri, Aug 28
55 °FClear.1 mph100%30.15 "Hg10 mi
11:20 PM55 °FClear.No wind100%30.15 "Hg10 mi
10:50 PM57 °FClear.No wind100%30.15 "Hg10 mi
10:20 PM57 °FSunny.No wind100%30.15 "Hg10 mi
9:50 PM57 °FSunny.No wind94%30.15 "Hg10 mi
9:20 PM61 °FSunny.No wind83%30.15 "Hg10 mi
8:50 PM61 °FSunny.No wind83%30.12 "Hg6 mi
8:20 PM64 °FSunny.No wind68%30.12 "Hg10 mi
7:50 PM66 °FSunny.3 mph64%30.12 "Hg10 mi
7:20 PM68 °FPassing clouds.7 mph60%30.09 "HgN/A
6:50 PM70 °FPassing clouds.7 mph53%30.09 "HgN/A
6:20 PM70 °FSunny.8 mph53%30.09 "Hg10 mi
5:50 PM70 °FPassing clouds.8 mph53%30.09 "HgN/A
5:20 PM70 °FPassing clouds.10 mph53%30.09 "HgN/A
4:50 PM70 °FSunny.9 mph53%30.09 "Hg10 mi
4:20 PM70 °FScattered clouds.9 mph57%30.09 "HgN/A
3:50 PM66 °FScattered clouds.7 mph68%30.09 "HgN/A
3:20 PM68 °FScattered clouds.8 mph64%30.09 "HgN/A
2:50 PM68 °FScattered clouds.8 mph60%30.07 "HgN/A
2:20 PM66 °FScattered clouds.7 mph60%30.07 "HgN/A
1:50 PM66 °FScattered clouds.8 mph60%30.07 "HgN/A
1:20 PM66 °FScattered clouds.10 mph64%30.07 "HgN/A
12:50 PM66 °FScattered clouds.9 mph68%30.07 "HgN/A
12:20 PM64 °FScattered clouds.9 mph78%30.07 "HgN/A
11:50 AM64 °FScattered clouds.7 mph78%30.04 "HgN/A
11:20 AM64 °FScattered clouds.7 mph78%30.04 "HgN/A
10:50 AM63 °FScattered clouds.8 mph83%30.04 "HgN/A
10:20 AM61 °FScattered clouds.7 mph94%30.04 "HgN/A
9:50 AM59 °FScattered clouds.7 mph94%30.01 "HgN/A
9:20 AM57 °FScattered clouds.6 mph94%30.01 "HgN/A
8:50 AM57 °FPassing clouds.5 mph94%30.01 "Hg6 mi
8:20 AM55 °FPassing clouds.5 mph100%30.01 "Hg6 mi
7:50 AM55 °FClear.5 mph94%30.01 "Hg4 mi
7:20 AM54 °FPassing clouds.5 mph100%29.98 "Hg4 mi
6:50 AM55 °FPassing clouds.5 mph94%29.98 "Hg4 mi
6:20 AM55 °FPassing clouds.5 mph94%29.98 "Hg4 mi
5:50 AM54 °FPassing clouds.3 mph100%29.95 "Hg4 mi
4:50 AM54 °FPassing clouds.3 mph100%29.95 "Hg4 mi
Weather by CustomWeather, © 2015

See weather overviewHow to use our weather pages